Theta_e
334 334 334 335 334 335 337 341 344 343 337 331 320 321 320 326 329 328 325 334 336 333 330 329 332 329 329 330 329 329 328 328 326 326 327 327 327 329 330 332 334 335 337
337 334 333 334 337 344 344 342 339 333 321 320 319 321 321 324 323 325 324 327 336 334 329 328 330 326 327 329 330 328 327 326 325 324 324 324 326 330 330 330 332 332 333
337 336 332 333 343 343 333 325 323 320 319 319 319 321 322 323 322 322 322 325 330 332 331 332 328 327 326 329 328 327 327 325 325 324 323 323 323 324 327 328 329 330 330
341 337 339 344 345 336 324 322 321 318 318 318 317 316 315 322 321 321 323 323 324 322 324 329 328 327 326 329 327 327 325 325 325 324 323 322 322 323 323 325 327 327 328
341 337 344 338 331 327 324 322 320 319 318 317 318 319 315 318 324 325 319 320 318 318 317 323 329 329 329 327 326 325 324 324 324 324 324 322 322 323 322 322 322 324 326
345 345 342 333 328 324 322 321 319 321 317 316 318 319 318 320 318 317 318 320 318 317 316 318 316 317 329 326 324 323 324 325 324 324 323 321 321 323 322 321 321 321 322
346 342 335 331 326 324 323 323 322 318 315 317 311 310 315 313 313 316 317 316 315 316 316 316 314 314 316 325 324 322 323 324 324 324 322 321 320 322 322 320 320 320 320
343 338 330 326 324 324 323 321 322 319 315 317 312 310 305 309 315 314 313 314 311 313 315 314 313 315 316 315 319 322 321 323 323 322 321 320 320 320 321 320 320 320 319
342 336 331 328 326 324 319 318 317 314 313 315 314 310 305 304 308 313 313 312 310 310 311 310 313 314 313 312 315 316 321 320 321 320 320 319 320 320 321 320 319 319 319
338 335 332 328 324 322 319 319 319 318 313 310 312 313 314 310 302 305 310 310 310 310 309 309 310 311 311 312 316 320 320 319 319 319 318 318 318 319 319 319 318 318 318
335 332 327 325 324 323 321 318 316 314 313 311 310 312 310 309 307 306 303 307 310 310 309 308 308 308 309 309 310 314 319 319 317 317 316 317 317 317 318 318 317 318 318
327 326 325 323 323 323 321 316 315 317 315 315 313 313 311 309 308 306 302 302 305 308 310 307 306 306 307 307 313 317 319 319 319 317 315 315 315 316 316 316 317 317 318
323 321 325 325 321 318 315 314 313 314 315 314 313 312 312 310 310 308 303 301 300 305 306 307 305 304 306 304 308 314 315 316 317 313 311 311 312 313 313 314 314 315 315
323 323 320 319 316 316 314 314 312 314 313 313 311 311 311 310 309 307 303 299 298 301 303 301 304 304 305 305 309 314 308 314 313 310 310 309 309 310 311 312 312 312 313
320 318 317 316 316 316 314 312 312 312 311 310 310 310 310 310 309 305 303 301 302 297 297 300 299 303 303 304 306 306 306 310 309 308 308 308 307 309 309 309 309 309 311
317 315 314 314 313 312 312 308 307 310 307 307 308 308 308 306 304 302 303 301 299 296 297 297 299 300 301 303 306 303 305 308 307 307 307 307 306 308 308 308 308 309 310
315 314 313 311 309 307 306 305 305 307 306 306 306 307 304 302 299 299 299 298 297 295 291 295 297 299 299 299 301 301 303 300 301 305 306 305 306 307 306 307 308 309 311
313 311 310 307 304 302 301 301 302 303 304 303 303 302 300 301 297 297 296 295 295 295 292 291 295 297 297 299 299 298 300 302 300 303 304 304 305 303 304 305 306 308 307
309 304 303 301 299 298 298 298 300 303 303 302 301 299 298 297 294 293 293 292 292 295 295 295 296 300 297 298 298 298 298 298 300 303 301 302 301 302 303 304 306 307 306
301 298 298 298 298 296 296 298 300 300 301 300 301 299 298 296 293 292 293 292 294 293 295 297 298 295 295 296 297 296 293 295 294 297 298 299 300 301 302 304 306 308 307
298 298 296 294 294 295 296 295 296 298 298 297 297 299 297 298 300 299 295 293 293 293 292 290 291 292 293 293 290 291 290 291 293 292 293 294 295 296 299 302 304 304 305
295 294 293 292 291 295 297 298 296 296 298 296 295 295 294 295 294 297 298 297 294 290 287 287 290 290 290 289 290 290 290 289 288 293 292 291 293 294 296 299 302 304 304
292 291 291 291 290 292 297 298 299 295 296 294 292 291 292 293 292 291 293 293 292 293 293 291 287 288 287 290 289 289 289 289 289 292 292 290 291 294 296 298 301 303 302
292 291 290 289 289 293 295 295 296 292 296 296 293 290 288 288 292 291 289 288 287 288 289 291 289 289 290 290 290 290 290 290 290 291 293 290 294 293 296 298 300 301 301
293 292 290 289 287 288 294 294 291 292 293 291 291 292 289 289 293 292 288 287 287 288 292 293 292 291 291 291 292 290 287 286 286 289 291 291 291 293 292 292 296 301 300
295 294 291 289 292 287 293 293 290 288 288 290 291 290 294 291 292 292 287 286 287 288 288 289 289 289 290 290 291 290 288 285 286 286 292 290 292 292 290 296 298 300 301
Wind_Speed
5 3 4 4 2 4 4 3 3 3 3 3 5 4 6 6 6 3 2 10 8 6 4 4 9 5 7 9 8 13 14 16 19 18 18 18 18 17 18 18 18 19 19
4 4 4 2 2 3 4 4 4 4 4 3 4 4 3 5 6 5 3 5 7 5 3 3 9 1 4 7 10 11 12 14 17 17 18 18 17 18 18 17 17 18 19
6 6 4 5 5 3 6 5 4 4 5 3 5 5 5 3 3 4 4 3 3 4 5 6 6 3 2 9 6 9 9 11 14 16 17 17 19 19 19 19 19 18 18
7 5 4 4 4 4 4 4 3 4 4 4 3 4 4 3 0 3 3 3 3 2 4 8 4 4 5 9 5 8 7 10 13 16 16 18 18 18 18 19 20 19 19
7 6 5 5 5 4 4 3 4 3 3 3 3 3 2 4 4 4 4 5 1 2 3 7 4 6 8 7 7 5 6 9 13 16 16 18 17 18 18 18 17 18 19
8 7 5 6 5 5 4 4 4 4 3 2 3 4 3 2 3 4 5 4 5 5 5 5 4 5 9 7 5 1 7 11 15 18 15 18 18 18 19 17 18 18 18
7 8 5 5 4 5 4 3 3 4 5 4 3 3 3 3 5 5 4 4 5 5 5 4 4 4 4 4 3 2 7 12 16 16 17 17 19 18 17 17 17 17 18
7 7 8 6 6 5 6 4 3 2 2 4 2 2 4 4 2 3 4 3 7 4 5 6 6 6 3 2 5 6 9 13 16 18 18 19 20 18 15 16 18 18 18
8 9 8 7 7 5 5 3 4 5 3 3 5 3 2 2 3 2 2 4 6 4 5 6 6 6 6 4 5 5 12 12 14 16 19 20 19 17 16 15 17 18 19
8 9 9 8 7 5 6 4 4 4 4 3 2 4 4 2 1 4 2 1 5 5 6 4 5 5 6 4 7 10 15 11 12 16 19 18 19 18 17 17 17 18 19
9 10 8 9 7 6 6 6 6 6 4 4 3 2 3 3 2 1 4 5 2 4 4 4 4 5 6 5 5 6 16 9 14 13 16 17 18 18 19 18 17 19 19
6 9 9 8 7 7 7 5 6 7 5 5 3 4 3 2 2 2 2 4 7 4 5 3 4 3 4 5 11 18 16 15 14 12 14 18 21 19 17 18 19 20 19
6 8 8 7 7 7 6 6 7 6 4 4 4 3 4 2 0 1 1 3 3 3 2 3 3 3 6 4 6 19 18 18 15 16 16 19 20 21 19 18 19 18 17
7 7 8 9 8 7 6 6 4 4 5 4 6 4 3 2 1 0 1 1 3 2 2 3 3 4 6 8 14 22 10 15 17 18 18 21 21 20 17 16 17 16 15
9 9 9 9 7 8 7 6 4 6 6 5 4 4 3 3 4 3 3 3 2 5 7 3 4 6 6 8 11 7 5 16 18 20 20 22 22 20 16 18 19 18 18
11 11 9 9 9 8 6 7 6 5 6 2 2 5 5 4 6 5 5 4 4 2 5 4 7 10 9 9 11 6 6 15 17 22 23 24 19 16 19 18 18 17 17
11 11 10 10 10 8 7 7 6 6 5 5 6 8 9 8 5 5 4 3 3 2 3 6 5 8 8 8 9 6 7 6 8 18 23 21 17 16 21 20 20 20 13
11 12 11 11 9 8 7 6 6 5 5 7 7 10 8 6 6 5 4 5 4 4 2 9 6 5 6 9 6 9 8 7 6 15 22 18 17 22 19 19 18 12 9
12 11 11 11 8 6 6 6 5 5 8 8 8 8 5 6 5 4 5 6 4 5 5 6 9 7 4 5 11 7 7 9 8 18 17 18 22 19 19 18 18 15 9
12 12 10 9 8 8 7 6 6 6 7 7 6 6 6 6 7 6 5 5 6 6 6 5 7 6 6 8 6 10 12 8 10 9 8 17 18 19 17 16 16 14 8
11 10 11 10 7 6 4 4 5 6 7 7 8 5 7 12 15 11 4 6 8 7 6 7 7 7 8 10 10 7 8 10 11 3 10 10 9 8 8 12 12 18 12
12 12 10 8 6 4 6 6 6 5 7 7 6 5 5 8 10 14 16 16 12 8 6 4 5 8 10 10 10 9 8 7 7 3 11 12 4 8 7 8 17 18 12
11 10 7 7 8 7 12 10 9 5 6 5 6 5 4 5 7 6 11 12 11 13 11 7 8 8 10 10 10 11 9 8 7 10 8 8 4 9 7 8 15 15 15
11 8 7 7 8 8 14 13 12 7 7 4 6 5 3 5 6 7 6 6 6 7 8 7 7 8 8 9 8 8 10 10 9 5 4 4 6 9 8 6 13 15 16
9 7 6 7 9 8 14 13 7 6 6 6 5 5 3 4 6 8 6 9 8 7 11 16 13 13 13 14 13 6 6 7 5 3 3 3 4 7 5 6 6 15 16
10 7 7 6 12 8 13 10 6 4 6 3 4 3 3 4 8 10 6 6 12 11 10 11 9 10 11 11 14 6 6 7 5 4 2 6 3 3 6 4 8 7 8
Wind_Direction
209 193 218 239 180 233 219 195 120 93 75 40 41 42 110 143 165 160 175 152 145 144 115 51 21 30 9 7 23 11 16 12 6 4 3 2 351 345 339 341 340 344 339
208 168 208 121 161 157 118 124 111 104 70 50 30 12 84 155 141 159 166 163 169 172 148 1 14 68 353 344 31 12 37 10 5 4 6 359 347 355 354 346 341 345 341
187 177 151 156 170 132 102 98 98 85 70 28 36 27 33 17 45 147 171 164 188 203 231 338 360 178 288 345 20 14 23 13 4 5 7 3 356 353 349 346 343 343 345
163 130 137 116 123 112 115 102 97 79 67 41 359 6 31 17 340 139 84 90 194 246 298 327 343 216 267 318 17 27 11 10 3 5 2 2 358 355 348 343 344 343 339
149 133 126 123 113 105 108 106 65 90 56 9 341 310 4 0 48 55 51 109 180 311 333 305 326 285 269 312 347 30 355 1 355 0 5 359 354 353 349 340 335 336 339
146 128 118 116 123 108 91 68 94 52 71 348 325 341 5 75 98 66 76 55 354 339 336 318 310 301 286 313 4 45 356 355 353 3 357 356 352 346 342 340 340 335 334
138 128 110 114 113 98 103 103 90 73 30 5 15 7 17 61 42 60 82 39 13 347 354 327 316 306 305 325 113 12 8 353 347 355 356 353 344 338 337 336 337 335 333
132 122 126 115 109 103 79 71 98 102 68 26 91 69 353 332 7 55 47 39 11 2 358 337 332 335 330 22 19 49 4 350 355 356 352 341 334 333 335 339 336 333 330
123 121 117 125 104 105 99 102 91 106 103 30 51 128 25 312 328 354 35 31 359 352 336 341 0 4 15 21 51 10 351 352 356 354 352 344 339 337 333 335 334 332 329
103 99 95 96 103 103 104 85 65 82 92 60 14 18 69 120 54 326 313 335 349 360 350 352 13 16 18 16 355 343 346 341 343 350 353 346 339 337 342 334 331 330 325
86 91 99 99 104 107 92 87 79 75 71 93 68 17 24 42 67 224 290 325 349 334 335 359 19 21 13 342 326 309 328 318 327 338 346 344 347 337 327 328 329 327 326
93 93 95 101 105 97 95 96 81 76 86 77 61 53 65 41 343 331 333 314 324 325 319 35 34 359 326 332 339 335 335 333 330 330 348 351 339 333 331 325 322 320 319
98 94 108 108 90 90 90 90 82 77 66 81 82 81 63 61 334 253 195 281 283 289 315 319 14 311 348 329 312 338 342 335 357 19 354 351 340 329 326 323 324 321 318
108 111 100 94 94 98 100 83 75 81 74 65 63 53 64 52 97 124 216 322 327 285 313 276 308 343 332 333 332 340 341 360 356 354 344 343 340 335 332 338 331 324 318
107 99 92 89 88 84 75 72 70 61 52 41 44 57 51 33 41 37 49 51 351 329 319 321 321 340 328 328 325 354 332 344 343 341 337 337 335 336 344 330 325 318 313
111 105 99 87 77 68 72 69 58 54 64 23 20 48 45 40 40 25 22 14 44 355 302 2 321 312 316 318 320 333 311 335 332 337 337 338 334 331 339 337 332 324 315
109 102 95 86 77 65 50 59 64 49 49 40 24 44 60 45 35 23 13 14 14 352 296 314 287 301 305 307 315 310 308 299 324 329 334 334 333 336 338 333 333 330 329
104 97 92 83 76 68 58 64 62 46 49 54 56 62 53 43 30 9 4 2 349 324 285 292 300 302 301 311 304 311 317 317 325 324 334 335 335 333 328 329 327 332 335
95 82 81 77 71 61 60 53 54 51 66 61 69 69 54 39 20 358 3 357 327 313 302 287 299 307 290 304 326 313 316 321 326 330 332 334 332 331 330 329 321 315 309
91 86 81 86 71 57 44 38 41 51 66 63 70 68 48 31 20 7 359 326 320 305 299 310 314 316 322 328 325 335 331 335 325 328 338 329 327 327 331 330 332 356 321
90 88 81 68 65 69 64 68 56 60 73 63 50 70 45 36 29 24 10 349 352 340 343 331 320 320 324 335 340 330 324 326 332 336 340 327 326 326 333 329 337 335 324
81 78 73 76 70 70 56 76 86 64 64 66 63 49 53 34 18 21 12 13 8 355 340 311 306 331 332 326 335 329 332 345 340 330 338 313 316 327 326 333 332 337 320
94 82 71 66 57 42 42 61 90 74 84 86 74 57 32 21 14 360 360 3 5 1 354 341 333 332 325 338 323 328 337 328 311 311 316 296 313 329 340 331 324 317 326
93 93 80 61 64 49 50 50 52 58 101 105 76 70 47 26 18 12 356 343 326 335 345 349 337 329 327 325 322 323 313 310 304 283 313 295 330 324 329 316 313 321 325
105 85 78 70 66 48 51 50 52 73 85 55 68 36 75 71 20 14 13 5 347 339 344 348 344 339 336 335 337 333 339 334 323 301 310 308 307 324 312 306 320 331 327
105 98 78 58 64 48 39 44 60 87 71 28 31 16 42 83 35 19 17 346 357 348 341 345 347 343 350 339 342 343 318 316 316 303 320 335 315 350 316 293 320 328 323